Torna al catalogo

ZORKIY-2M NO. 4

AttivoScienzaSSO
NORAD 59774·PAYLOAD·🇷🇺 Russia
Questo nome del satellite non è ancora stato confermato da fonti ufficiali.

Lanciato May 16, 2024 da Plesetsk Cosmodrome

Loading…

Prossimi Passaggi (prossime 24 ore)

TLE

AggiornatoSource: Space-Track

Epoca: Sep 14, 2026, 22:20 UTC

1 59774U 24092B   26257.93103194  .00009572  00000-0  33024-3 0  9999
2 59774  97.6607  29.6463 0007614 219.1159 140.9531 15.30175753129254

Traccia ZORKIY-2M NO. 4 in tempo reale con AllMySat

Download on the App Store